Flag for Vietnam Weather past 2 weeks in Ho Chi Minh, Vietnam

Now
79 °F

Passing clouds.


Feels Like: 82 °F
Forecast: 77 / 94 °F
Wind: 7 mph from Southeast

Location: Ho Chi Minh

Current Time: Mar 7, 2015 at 1:35:11 AM

Latest Report: Mar 7, 2015 at 1:00 AM


Visibility: N/A

Pressure: 29.86 "Hg

Humidity: 84%

Dew point: 73 °F

Location of Ho Chi MinhLocation

Historic Weather in Ho Chi Minh — Graph

°F

Ho Chi Minh temperature yesterday

Maximum temperature yesterday: 95 °F (at 12:30 PM)
Minimum temperature yesterday: 77 °F (at 4:30 AM)
Average temperature yesterday: 84 °F

Past Weeks' High & Low Weather Summary

 TemperatureHumidityPressure
High97 °F (Mar 1, 1:30 PM)89% (Feb 27, 4:30 AM)29.98 "Hg (Feb 27, 4:30 AM)
Low75 °F (Feb 20, 4:00 AM)37% (Mar 1, 3:00 PM)29.71 "Hg (Mar 3, 4:00 PM)
Average83 °F66%29.86 "Hg
* Reported Midnight between Feb 19 and Feb 20 — Midnight between Mar 6 and Mar 7, Ho Chi Minh, Weather by CustomWeather, © 2015

Note: Actual official high and low records may vary slightly from our data, if they occured in-between our weather recording intervals... More about our weather records

Advertising

Ho Chi Minh weather history for previous 24 hours

 ConditionsComfort  
Time TempWeatherWind HumidityBarometerVisibility
12:00 AM
Sat, Mar 7
79 °FPassing clouds.6 mph84%29.89 "HgN/A
11:30 PM
Fri, Mar 6
81 °FPassing clouds.8 mph74%29.89 "HgN/A
11:00 PM81 °FPassing clouds.7 mph79%29.89 "HgN/A
10:30 PM81 °FPassing clouds.8 mph79%29.89 "HgN/A
10:00 PM81 °FPassing clouds.9 mph74%29.89 "HgN/A
9:30 PM81 °FPassing clouds.8 mph74%29.89 "HgN/A
9:00 PM81 °FPassing clouds.9 mph74%29.86 "HgN/A
8:30 PM81 °FPassing clouds.12 mph74%29.86 "HgN/A
8:00 PM81 °FPassing clouds.14 mph74%29.86 "HgN/A
7:30 PM81 °FPassing clouds.10 mph74%29.86 "HgN/A
7:00 PM82 °FPassing clouds.9 mph70%29.83 "HgN/A
6:30 PM82 °FPassing clouds.13 mph66%29.83 "HgN/A
6:00 PM84 °FPassing clouds.12 mph66%29.80 "HgN/A
5:30 PM86 °FPassing clouds.13 mph59%29.80 "HgN/A
5:00 PM88 °FPassing clouds.13 mph52%29.80 "HgN/A
4:30 PM88 °FPassing clouds.14 mph49%29.80 "HgN/A
4:00 PM90 °FPassing clouds.12 mph49%29.80 "HgN/A
3:30 PM91 °FScattered clouds.14 mph49%29.77 "HgN/A
3:00 PM91 °FScattered clouds.13 mph46%29.80 "HgN/A
2:30 PM95 °FScattered clouds.15 mph41%29.80 "HgN/A
2:00 PM93 °FScattered clouds.9 mph41%29.80 "HgN/A
1:30 PM93 °FScattered clouds.6 mph44%29.80 "HgN/A
1:00 PM93 °FScattered clouds.8 mph41%29.83 "HgN/A
12:30 PM95 °FScattered clouds.8 mph39%29.86 "HgN/A
12:00 PM91 °FPassing clouds.10 mph44%29.86 "HgN/A
11:30 AM91 °FPassing clouds.12 mph44%29.89 "HgN/A
11:00 AM90 °FPassing clouds.13 mph49%29.89 "HgN/A
10:30 AM88 °FPassing clouds.12 mph49%29.92 "HgN/A
10:00 AM88 °FPassing clouds.12 mph55%29.92 "HgN/A
9:30 AM88 °FPassing clouds.13 mph55%29.92 "HgN/A
9:00 AM84 °FPassing clouds.14 mph62%29.92 "HgN/A
8:30 AM84 °FWarm.13 mph62%29.92 "HgN/A
8:00 AM82 °FPassing clouds.14 mph66%29.92 "HgN/A
7:30 AM81 °FPassing clouds.10 mph74%29.92 "HgN/A
7:00 AM79 °FPassing clouds.9 mph79%29.89 "HgN/A
6:30 AM79 °FPassing clouds.7 mph79%29.89 "HgN/A
6:00 AM77 °FPassing clouds.6 mph83%29.89 "HgN/A
5:30 AM77 °FPassing clouds.8 mph83%29.86 "HgN/A
5:00 AM77 °FPassing clouds.7 mph83%29.86 "HgN/A
4:30 AM77 °FPassing clouds.9 mph83%29.86 "HgN/A
3:30 AM79 °FPassing clouds.6 mph79%29.86 "HgN/A
3:00 AM79 °FPassing clouds.6 mph79%29.86 "HgN/A
2:30 AM79 °FPassing clouds.5 mph79%29.86 "HgN/A
2:00 AM79 °FPassing clouds.5 mph79%29.86 "HgN/A
1:30 AM79 °FPassing clouds.6 mph79%29.86 "HgN/A
1:00 AM79 °FPassing clouds.9 mph79%29.89 "HgN/A
Weather by CustomWeather, © 2015

See weather overviewHow to use our weather pages